sat.trackr.live / text

‹ back to catalog

ICEYE-X38

NORAD 59100 · 2024-043C

PAYLOAD ACTIVE UNKNOWN

§ Identity

Operator
Country
FIN
Launch date
2024-03-04
Launch site
AFWTR
Launch vehicle
Mass (kg)
RCS (m²)

External: N2YO · Heavens-Above · Gunter

§ Orbital elements

Epoch: 2026-09-22T21:59:21.249888Z

Period
95.14 min
Inclination
97.8533°
Eccentricity
0.0003839
Mean motion
15.13589226 rev/d
Perigee alt
522.6 km
Apogee alt
527.9 km
Semi-major
6,903.4 km
B*
1.7257e-4
RAAN
52.4870°
Arg perigee
103.7667°
Mean anomaly
256.3991°
Rev number
12,645

§ Raw data

ICEYE-X381 59100U 24043C   26265.91621817  .00003027  00000+0  17257-3 0  99902 59100  97.8533  52.4870 0003839 103.7667 256.3991 15.13589226126456

JSON: /api/v1/satellites/59100 · /tle

For live sub-satellite position, see the globe view (requires WebGL).

§ Visibility from observer

Set your observer location to see the next 7 days of passes ≥ 10°. The values pass through the URL so the page stays shareable.

No JS? Fill the form by hand. The geolocation button needs JavaScript.

§ Radio — SatNOGS DB

ModeDescriptionDownlinkUplink
BPSK S-band telemetry 2.270 GHz

1 transmitter · refreshed weekly from db.satnogs.org